Weather in Zorgol

Russia / Zabaykalsky Krai     50°36′20″N   119°16′14″E
temp.,
°C
wind,
m/s
gust,
m/s
humid.,
%
clouds,
%
prec.,
mm/h
press.,
hPa
HPBL,
m
14 june, mon
mon1400:00+19ene3661100 0.1 1001105
03:00+18ese0170100 0.1 100211
06:00+17ese1180100 0.8 100129
09:00+17ne3486100 3.0 1001256
12:00+22ne2362100 0.2 10001049
15:00+23nnw2259100 0.8 999773
18:00+19nne5980100 3.0 999593
21:00+15ene3693100 10.8 1000257
15 june, tue
tue1500:00+15n31093100 2.9 1000319
03:00+14nnw3694100 2.9 999228
06:00+14nw3593100 0.0 999150
09:00+18n3577100 0.0 999509
12:00+22nw465427 0.1 10001517
15:00+24nw45395 0.1 9992155
18:00+24wnw4543100 0.0 9991355
21:00+18nw115499 0.0 100111
16 june, wed
wed1600:00+17wnw1152100 0.0 100211
03:00+17nw2253100 0.0 100229
06:00+14nnw5967100 0.3 1004325
09:00+12nne2594100 2.4 1005196
12:00+13ene2595100 4.5 1004331
15:00+13e3594100 8.5 1003370
18:00+13nne2595100 2.8 1001349
21:00+13ne3898100 5.6 999497
17 june, thu
thu1700:00+13nne3898100 2.8 995528
03:00+12n61395100 6.9 991739
06:00+12n91794100 3.8 988841
09:00+11n81594100 6.6 984920
12:00+11nne81495100 5.4 981845
15:00+12ese6992100 7.1 982700
18:00+11e6996100 1.9 984421
21:00+9ene5993100 3.3 988501
18 june, fri
fri1800:00+10nne2392100 0.1 989126
03:00+10se1295100 0.5 98973
06:00+9ne1196100 3.9 99162
09:00+13e127733 4.1 992708
12:00+16ese35646 0.6 9921199
15:00+17se2456100 1.0 9921246
18:00+18nw115473 0.1 993727
21:00+14n3375100 0.1 99433